Powrót do katalogu

HULIANWANG DIGUI-152

AktywnyŁącznośćLEO
NORAD 67528·PAYLOAD·🇨🇳 China

Wystrzelony Jan 19, 2026 z Wenchang Space Launch Site

Loading…

Następne Przeloty (najbliższe 24 godziny)

TLE

ŚwieżeSource: Space-Track

Epoka: Sep 14, 2026, 10:07 UTC

1 67528U 26013G   26257.42176616 -.00000107  00000-0  35731-4 0  9997
2 67528  50.0053  35.3553 0000837  84.7196 275.3772 13.29330959 31922

Śledź HULIANWANG DIGUI-152 w czasie rzeczywistym z AllMySat

Download on the App Store